Tracking 32140 objects as of 13-Nov-2025
HD Live streaming from Space Station
objects crossing your sky now

STARLINK-11127

Track STARLINK-11127 now!
10-day predictions
STARLINK-11127 is classified as:


NORAD ID: 60119
Int'l Code: 2024-118G
Perigee: 365.9 km
Apogee: 367.9 km
Inclination: 53.2 °
Period: 91.7 minutes
Semi major axis: 6737 km
RCS: Unknown
Launch date: June 24, 2024
Source: United States (US)
Launch site: AIR FORCE WESTERN TEST RANGE (AFWTR)
Your satellite tracking list
Your tracking list is empty




NASA's NSSDC Master Catalog

Two Line Element Set (TLE):
1 60119U 24118G   25317.62042579  .00001924  00000-0  20747-4 0  9996
2 60119  53.1582  73.4165 0001474  76.4769 283.6413 15.69703806 79765
Source of the keplerian elements: AFSPC